Site-Specific Forecast Table for Stillwater
(NFDRS Fuel Model T - Tallgrass with brush)
DATE TIME TAIR RELH WSPD RAIN_24H BI SC ERC IC 1-HR 10-HR 100-HR 1000-HR HERB WOODY KBDI
Thu Mar 30, 2017 12:00 am CDT 46°F 79% 15 mph 0.70 in. 0 0 0 0% 15% 18% 16% 9% 106% 116% 50
Thu Mar 30, 2017 1:00 am CDT 46°F 79% 16 mph 0.60 in. 0 0 0 0% 16% 18% 16% 9% 106% 116% 50
Thu Mar 30, 2017 2:00 am CDT 46°F 79% 16 mph 0.56 in. 0 0 0 0% 16% 18% 16% 9% 106% 116% 50
Thu Mar 30, 2017 3:00 am CDT 46°F 79% 16 mph 0.45 in. 0 0 0 0% 16% 18% 16% 9% 106% 116% 50
Thu Mar 30, 2017 4:00 am CDT 46°F 79% 17 mph 0.35 in. 0 0 0 0% 16% 18% 16% 9% 106% 116% 50
Thu Mar 30, 2017 5:00 am CDT 46°F 80% 16 mph 0.13 in. 0 0 0 0% 16% 18% 16% 9% 106% 116% 50
Thu Mar 30, 2017 6:00 am CDT 45°F 81% 16 mph 0.05 in. 0 0 0 0% 16% 18% 16% 9% 106% 116% 50
Thu Mar 30, 2017 7:00 am CDT 45°F 82% 15 mph 0.00 in. 0 0 0 0% 16% 18% 16% 9% 106% 116% 50
Thu Mar 30, 2017 8:00 am CDT 46°F 79% 17 mph 0.00 in. 0 0 0 0% 16% 18% 16% 9% 106% 116% 50
Thu Mar 30, 2017 9:00 am CDT 47°F 76% 18 mph 0.00 in. 0 0 0 0% 15% 17% 16% 9% 106% 116% 50
Thu Mar 30, 2017 10:00 am CDT 48°F 72% 19 mph 0.00 in. 5 6 0 2% 14% 17% 16% 9% 106% 116% 50
Thu Mar 30, 2017 11:00 am CDT 50°F 68% 19 mph 0.00 in. 11 15 1 4% 12% 16% 15% 8% 106% 116% 50
Thu Mar 30, 2017 12:00 pm CDT 53°F 63% 19 mph 0.00 in. 16 19 2 7% 11% 15% 15% 8% 106% 116% 50
Thu Mar 30, 2017 1:00 pm CDT 56°F 58% 18 mph 0.00 in. 20 21 3 9% 10% 14% 15% 8% 106% 116% 50
Thu Mar 30, 2017 2:00 pm CDT 57°F 57% 17 mph 0.00 in. 22 20 4 11% 9% 13% 15% 8% 106% 116% 50
Thu Mar 30, 2017 3:00 pm CDT 58°F 56% 16 mph 0.00 in. 22 18 4 11% 9% 12% 15% 8% 106% 116% 50
Thu Mar 30, 2017 4:00 pm CDT 60°F 55% 15 mph 0.00 in. 22 17 5 12% 8% 12% 15% 9% 106% 116% 50
Thu Mar 30, 2017 5:00 pm CDT 59°F 57% 12 mph 0.00 in. 20 13 5 10% 8% 11% 15% 9% 106% 116% 52
Thu Mar 30, 2017 6:00 pm CDT 58°F 59% 10 mph 0.00 in. 17 10 4 8% 9% 11% 15% 9% 106% 116% 52
Thu Mar 30, 2017 7:00 pm CDT 57°F 62% 8 mph 0.00 in. 14 7 4 6% 9% 11% 15% 9% 106% 116% 52
DATE TIME TAIR RELH WSPD RAIN_24H BI SC ERC IC 1-HR 10-HR 100-HR 1000-HR HERB WOODY KBDI
Thu Mar 30, 2017 8:00 pm CDT 53°F 70% 6 mph 0.00 in. 11 5 3 4% 10% 12% 15% 9% 106% 116% 52
Thu Mar 30, 2017 9:00 pm CDT 50°F 79% 6 mph 0.00 in. 7 4 2 2% 12% 12% 15% 9% 106% 116% 52
Thu Mar 30, 2017 10:00 pm CDT 46°F 87% 6 mph 0.00 in. 2 1 1 1% 14% 13% 15% 9% 106% 116% 52
Thu Mar 30, 2017 11:00 pm CDT 45°F 90% 6 mph 0.00 in. 0 0 0 0% 17% 14% 15% 9% 106% 116% 52
Fri Mar 31, 2017 12:00 am CDT 44°F 92% 6 mph 0.00 in. 0 0 0 0% 19% 14% 15% 9% 106% 116% 52
Fri Mar 31, 2017 1:00 am CDT 42°F 94% 6 mph 0.00 in. 0 0 0 0% 22% 15% 16% 9% 106% 116% 52
Fri Mar 31, 2017 2:00 am CDT 41°F 95% 5 mph 0.00 in. 0 0 0 0% 24% 16% 16% 9% 106% 116% 52
Fri Mar 31, 2017 3:00 am CDT 40°F 95% 5 mph 0.00 in. 0 0 0 0% 25% 16% 16% 9% 106% 116% 52
Fri Mar 31, 2017 4:00 am CDT 40°F 96% 5 mph 0.00 in. 0 0 0 0% 26% 17% 16% 9% 106% 116% 52
Fri Mar 31, 2017 5:00 am CDT 39°F 96% 6 mph 0.00 in. 0 0 0 0% 27% 18% 16% 9% 106% 116% 52
Fri Mar 31, 2017 6:00 am CDT 39°F 97% 6 mph 0.00 in. 0 0 0 0% 28% 18% 16% 9% 106% 116% 52
Fri Mar 31, 2017 7:00 am CDT 39°F 98% 7 mph 0.00 in. 0 0 0 0% 29% 19% 16% 9% 106% 116% 52
Fri Mar 31, 2017 8:00 am CDT 43°F 89% 10 mph 0.00 in. 0 0 0 0% 25% 18% 16% 9% 106% 116% 52
Fri Mar 31, 2017 9:00 am CDT 47°F 80% 13 mph 0.00 in. 0 0 0 0% 20% 17% 15% 8% 106% 116% 52
Fri Mar 31, 2017 10:00 am CDT 51°F 71% 16 mph 0.00 in. 0 0 0 0% 15% 16% 15% 8% 106% 116% 52
Fri Mar 31, 2017 11:00 am CDT 54°F 66% 16 mph 0.00 in. 10 12 1 4% 13% 15% 15% 8% 106% 116% 52
Fri Mar 31, 2017 12:00 pm CDT 58°F 61% 16 mph 0.00 in. 17 17 2 7% 11% 14% 14% 8% 106% 116% 52
Fri Mar 31, 2017 1:00 pm CDT 62°F 56% 17 mph 0.00 in. 21 20 4 11% 9% 13% 14% 8% 106% 116% 52
Fri Mar 31, 2017 2:00 pm CDT 64°F 54% 16 mph 0.00 in. 23 19 4 13% 8% 12% 14% 8% 106% 116% 52
Fri Mar 31, 2017 3:00 pm CDT 66°F 53% 16 mph 0.00 in. 24 19 5 14% 8% 11% 14% 8% 106% 116% 52
DATE TIME TAIR RELH WSPD RAIN_24H BI SC ERC IC 1-HR 10-HR 100-HR 1000-HR HERB WOODY KBDI
Fri Mar 31, 2017 4:00 pm CDT 68°F 51% 16 mph 0.00 in. 31 26 6 18% 7% 11% 14% 9% 106% 116% 52
Fri Mar 31, 2017 5:00 pm CDT 68°F 53% 15 mph 0.00 in. 31 24 7 17% 7% 10% 14% 9% 106% 116% 56
Fri Mar 31, 2017 6:00 pm CDT 67°F 56% 14 mph 0.00 in. 24 17 6 14% 8% 10% 14% 9% 106% 116% 56
Fri Mar 31, 2017 7:00 pm CDT 67°F 59% 13 mph 0.00 in. 21 14 5 11% 8% 10% 14% 9% 106% 116% 56
Fri Mar 31, 2017 8:00 pm CDT 64°F 65% 14 mph 0.00 in. 20 14 4 9% 9% 11% 14% 9% 106% 116% 56
Fri Mar 31, 2017 9:00 pm CDT 61°F 72% 14 mph 0.00 in. 17 14 3 7% 11% 11% 14% 9% 106% 116% 56
Fri Mar 31, 2017 10:00 pm CDT 58°F 79% 15 mph 0.00 in. 13 11 2 4% 12% 12% 14% 9% 106% 116% 56
Fri Mar 31, 2017 11:00 pm CDT 57°F 84% 13 mph 0.00 in. 6 5 1 2% 14% 13% 14% 9% 106% 116% 56
Sat Apr 01, 2017 12:00 am CDT 56°F 89% 12 mph 0.00 in. 0 0 0 0% 16% 14% 14% 9% 106% 116% 56
Sat Apr 01, 2017 1:00 am CDT 54°F 94% 11 mph 0.00 in. 0 0 0 0% 19% 15% 15% 9% 106% 116% 56
Sat Apr 01, 2017 2:00 am CDT 54°F 93% 11 mph 0.00 in. 0 0 0 0% 22% 15% 15% 9% 106% 116% 56
Sat Apr 01, 2017 3:00 am CDT 54°F 93% 11 mph 0.00 in. 0 0 0 0% 23% 16% 15% 9% 106% 116% 56
Sat Apr 01, 2017 4:00 am CDT 54°F 93% 11 mph 0.00 in. 0 0 0 0% 24% 17% 15% 9% 106% 116% 56
Sat Apr 01, 2017 5:00 am CDT 54°F 93% 12 mph 0.00 in. 0 0 0 0% 24% 18% 15% 9% 106% 116% 56
Sat Apr 01, 2017 6:00 am CDT 54°F 93% 14 mph 0.00 in. 0 0 0 0% 24% 18% 15% 9% 106% 116% 56
Sat Apr 01, 2017 7:00 am CDT 53°F 93% 15 mph 0.00 in. 0 0 0 0% 24% 19% 15% 9% 106% 116% 56
Sat Apr 01, 2017 8:00 am CDT 57°F 82% 17 mph 0.00 in. 0 0 0 0% 20% 19% 15% 9% 106% 116% 56
Sat Apr 01, 2017 9:00 am CDT 61°F 71% 19 mph 0.00 in. 0 0 0 0% 16% 18% 14% 9% 106% 116% 56
Sat Apr 01, 2017 10:00 am CDT 65°F 61% 20 mph 0.00 in. 11 16 1 5% 13% 17% 14% 8% 106% 116% 56
Sat Apr 01, 2017 11:00 am CDT 68°F 53% 21 mph 0.00 in. 20 24 3 10% 10% 15% 14% 8% 106% 116% 56
DATE TIME TAIR RELH WSPD RAIN_24H BI SC ERC IC 1-HR 10-HR 100-HR 1000-HR HERB WOODY KBDI
Sat Apr 01, 2017 12:00 pm CDT 71°F 45% 22 mph 0.00 in. 26 28 4 16% 8% 14% 14% 8% 106% 116% 56
Sat Apr 01, 2017 1:00 pm CDT 75°F 37% 23 mph 0.00 in. 43 50 7 28% 7% 13% 13% 8% 106% 116% 56
Sat Apr 01, 2017 2:00 pm CDT 73°F 44% 21 mph 0.00 in. 47 50 8 30% 6% 12% 13% 8% 106% 116% 56
Sat Apr 01, 2017 3:00 pm CDT 70°F 51% 18 mph 0.00 in. 42 40 8 25% 7% 11% 13% 9% 106% 116% 56
Sat Apr 01, 2017 4:00 pm CDT 68°F 58% 16 mph 0.00 in. 28 23 6 17% 7% 11% 13% 9% 106% 116% 56
Sat Apr 01, 2017 5:00 pm CDT 67°F 64% 14 mph 0.00 in. 21 15 4 11% 9% 12% 13% 9% 106% 116% 61
Sat Apr 01, 2017 6:00 pm CDT 66°F 70% 11 mph 0.00 in. 16 11 3 7% 10% 12% 13% 9% 106% 116% 61
Sat Apr 01, 2017 7:00 pm CDT 65°F 77% 9 mph 0.00 in. 11 7 2 4% 11% 12% 13% 9% 106% 116% 61
Sat Apr 01, 2017 8:00 pm CDT 64°F 80% 8 mph 0.00 in. 7 5 2 3% 13% 13% 14% 9% 106% 116% 61
Sat Apr 01, 2017 9:00 pm CDT 63°F 83% 6 mph 0.00 in. 3 2 1 1% 14% 14% 14% 9% 106% 116% 61
Sat Apr 01, 2017 10:00 pm CDT 63°F 86% 5 mph 0.00 in. 0 0 0 0% 15% 15% 14% 9% 106% 116% 61
Sat Apr 01, 2017 11:00 pm CDT 62°F 86% 5 mph 0.00 in. 0 0 0 0% 16% 16% 14% 9% 106% 116% 61
Sun Apr 02, 2017 12:00 am CDT 62°F 87% 7 mph 0.00 in. 0 0 0 0% 17% 16% 14% 9% 106% 116% 61
Sun Apr 02, 2017 1:00 am CDT 61°F 87% 9 mph 0.00 in. 0 0 0 0% 18% 17% 14% 9% 106% 116% 61
Sun Apr 02, 2017 2:00 am CDT 57°F 89% 9 mph 0.00 in. 0 0 0 0% 19% 18% 14% 9% 106% 116% 61
Sun Apr 02, 2017 3:00 am CDT 54°F 90% 9 mph 0.00 in. 0 0 0 0% 20% 18% 15% 9% 106% 116% 61
Sun Apr 02, 2017 4:00 am CDT 50°F 92% 9 mph 0.00 in. 0 0 0 0% 21% 19% 15% 9% 106% 116% 61
Sun Apr 02, 2017 5:00 am CDT 48°F 92% 9 mph 0.00 in. 0 0 0 0% 22% 20% 15% 9% 106% 116% 61
Sun Apr 02, 2017 6:00 am CDT 46°F 92% 9 mph 0.00 in. 0 0 0 0% 23% 21% 15% 9% 106% 116% 61
Sun Apr 02, 2017 7:00 am CDT 45°F 91% 10 mph 0.00 in. 0 0 0 0% 23% 21% 15% 9% 106% 116% 61
DATE TIME TAIR RELH WSPD RAIN_24H BI SC ERC IC 1-HR 10-HR 100-HR 1000-HR HERB WOODY KBDI